Location: Unspecified
(48.2082°N, 0.0000°E)
Time: 23:45:37
(UTC+00:00)

S-56A Canister/Altair - Pass Details

Date: 22 June 2019
Orbit: 632 x 2500 km, 38.9° (Epoch: 18 July)

Event Time Altitude Azimuth Distance (km) Brightness Sun altitude
Rises 17:38:50 0° 251° (WSW) 4,647 12.5 21.0°
Reaches altitude 10° 17:42:38 10° 245° (WSW) 3,344 11.8 20.4°
Maximum altitude 17:49:41 37° 181° (S) 1,495 9.1 19.2°
Drops below altitude 10° 17:54:44 10° 115° (ESE) 2,371 9.5 18.4°
Sets 17:57:00 0° 107° (ESE) 3,157 10.1 18.1°
